TimeCST,TemperatureF,Dew PointF,Humidity,Sea Level PressureIn,VisibilityMPH,Wind Direction,Wind SpeedMPH,Gust SpeedMPH,PrecipitationIn,Events,Conditions,WindDirDegrees,DateUTC
12:53 AM,6.1,-2.9,67,30.28,10.0,Calm,Calm,-,N/A,,Overcast,0,2013-01-23 06:53:00
1:53 AM,7.0,-2.0,67,30.27,10.0,Calm,Calm,-,N/A,,Overcast,0,2013-01-23 07:53:00
2:53 AM,8.1,-0.9,67,30.25,9.0,Calm,Calm,-,N/A,,Overcast,0,2013-01-23 08:53:00
3:53 AM,8.1,1.0,73,30.23,3.0,Calm,Calm,-,0.00,Snow,Light Snow,0,2013-01-23 09:53:00
4:53 AM,8.1,1.9,76,30.21,4.0,Calm,Calm,-,0.00,Snow,Light Snow,0,2013-01-23 10:53:00
6:53 AM,9.0,3.9,80,30.20,4.0,Calm,Calm,-,0.00,Snow,Light Snow,0,2013-01-23 12:53:00
7:53 AM,9.0,3.9,80,30.20,5.0,West,3.5,-,0.00,,Haze,270,2013-01-23 13:53:00
8:53 AM,10.0,5.0,80,30.21,10.0,WNW,6.9,-,N/A,,Overcast,300,2013-01-23 14:53:00
9:53 AM,12.9,6.1,74,30.22,9.0,WNW,8.1,-,N/A,,Overcast,300,2013-01-23 15:53:00
10:53 AM,15.1,7.0,70,30.23,10.0,WNW,10.4,-,N/A,,Partly Cloudy,300,2013-01-23 16:53:00
11:37 AM,15.8,6.8,68,30.16,10.0,WNW,19.6,24.2,N/A,,Mostly Cloudy,300,2013-01-23 17:37:00
11:53 AM,15.1,5.0,64,30.22,10.0,NW,17.3,23.0,N/A,,Overcast,320,2013-01-23 17:53:00
12:53 PM,17.1,3.9,56,30.22,10.0,WNW,17.3,26.5,N/A,,Mostly Cloudy,290,2013-01-23 18:53:00
1:22 PM,15.8,3.2,58,30.16,10.0,WNW,17.3,23.0,N/A,,Scattered Clouds,300,2013-01-23 19:22:00
1:31 PM,15.8,3.2,58,30.17,10.0,NW,17.3,23.0,N/A,,Mostly Cloudy,310,2013-01-23 19:31:00
1:44 PM,15.8,1.4,53,30.18,10.0,NNW,19.6,26.5,N/A,,Scattered Clouds,330,2013-01-23 19:44:00
1:53 PM,15.1,1.0,54,30.24,10.0,NNW,24.2,32.2,N/A,,Scattered Clouds,330,2013-01-23 19:53:00
2:53 PM,12.9,-2.0,51,30.28,10.0,NW,18.4,27.6,N/A,,Mostly Cloudy,320,2013-01-23 20:53:00
3:53 PM,10.0,-6.0,48,30.34,10.0,NNW,20.7,29.9,N/A,,Mostly Cloudy,330,2013-01-23 21:53:00
4:53 PM,7.0,-9.0,48,30.40,10.0,NNW,20.7,26.5,N/A,,Clear,330,2013-01-23 22:53:00
5:53 PM,3.9,-9.9,53,30.46,10.0,NNW,13.8,20.7,N/A,,Clear,340,2013-01-23 23:53:00
6:53 PM,3.0,-11.0,52,30.50,10.0,North,11.5,-,N/A,,Clear,360,2013-01-24 00:53:00
7:53 PM,1.0,-14.1,49,30.54,10.0,North,10.4,19.6,N/A,,Clear,350,2013-01-24 01:53:00
8:53 PM,-0.0,-14.1,52,30.58,10.0,NNE,15.0,20.7,N/A,,Clear,20,2013-01-24 02:53:00
9:53 PM,-2.0,-16.1,51,30.60,10.0,NNE,6.9,18.4,N/A,,Clear,20,2013-01-24 03:53:00
10:53 PM,-2.9,-16.1,54,30.63,10.0,NNE,8.1,-,N/A,,Clear,30,2013-01-24 04:53:00
11:53 PM,-4.0,-17.0,54,30.66,10.0,North,6.9,-,N/A,,Clear,10,2013-01-24 05:53:00